User: anonymous   Login
Location: D�derode
(51.8092°N, 10.1065°E)
Time: 09:55:28
(UTC+00:00)
Language:

Cosmos 1933 - Orbit

View from above orbital plane
View from above orbital plane
View from above satellite
View from above satellite

Ground track
Ground track

The orbit data is extracted from the following two-line orbital elements,

1 18958U 88020A   21063.56802738  .00000261  00000-0  16842-4 0  9994
2 18958  82.5278 234.3782 0011115 353.9275   6.1815 15.03867396774172
Epoch (UTC): 04 March 2021 13:37:57
Eccentricity: 0.0011115
inclination: 82.5278°
perigee height: 547 km
apogee height: 562 km
right ascension of ascending node: 234.3782°
argument of perigee: 353.9275°
revolutions per day: 15.03867396
mean anomaly at epoch: 6.1815°
orbit number at epoch: 77417

The dashed part of the orbit path shows where the satellite is in the earth's shadow,  

DLR